EN

Hourly Weather Traba

Today, 13 April, Tuesday

Time Temperature Precipitation Wind Pressure Humidity
00:00 +1°C° 0.1 mm 3 mps 757 mmHg 93%
01:00 +1°C° 0.1 mm 3 mps 758 mmHg 91%
02:00 +1°C° 0.1 mm 3 mps 758 mmHg 88%
03:00 +1°C° 0.1 mm 3 mps 758 mmHg 86%
04:00 +2°C° 0.1 mm 3 mps 758 mmHg 83%
05:00 +2°C° 0 mm 3 mps 758 mmHg 81%
06:00 +2°C° 0 mm 3 mps 758 mmHg 78%
07:00 +3°C° 0 mm 3 mps 759 mmHg 76%
08:00 +4°C° 0 mm 3 mps 758 mmHg 71%
09:00 +5°C° 0 mm 4 mps 758 mmHg 65%
10:00 +6°C° 0 mm 4 mps 758 mmHg 60%
11:00 +6°C° 0 mm 5 mps 758 mmHg 56%
12:00 +6°C° 0 mm 5 mps 758 mmHg 52%
13:00 +7°C° 0 mm 5 mps 758 mmHg 48%
14:00 +7°C° 0 mm 5 mps 758 mmHg 46%
15:00 +7°C° 0 mm 5 mps 757 mmHg 44%
16:00 +7°C° 0 mm 5 mps 757 mmHg 42%
17:00 +6°C° 0 mm 4 mps 757 mmHg 46%
18:00 +5°C° 0 mm 3 mps 757 mmHg 49%
19:00 +5°C° 0 mm 2 mps 757 mmHg 53%
20:00 +4°C° 0 mm 3 mps 757 mmHg 55%
21:00 +4°C° 0 mm 3 mps 757 mmHg 58%
22:00 +3°C° 0 mm 3 mps 757 mmHg 61%
23:00 +3°C° 0 mm 3 mps 757 mmHg 65%

Tomorrow, 14 April, Wednesday

Time Temperature Precipitation Wind Pressure Humidity
00:00 +2°C° 0 mm 3 mps 757 mmHg 68%
01:00 +1°C° 0 mm 4 mps 757 mmHg 71%
02:00 +2°C° 0 mm 3 mps 757 mmHg 71%
03:00 +2°C° 0 mm 3 mps 757 mmHg 71%
04:00 +2°C° 0 mm 3 mps 756 mmHg 70%
05:00 +2°C° 0 mm 3 mps 757 mmHg 71%
06:00 +1°C° 0 mm 4 mps 757 mmHg 71%
07:00 +1°C° 0 mm 4 mps 757 mmHg 72%
08:00 +2°C° 0 mm 5 mps 757 mmHg 69%
09:00 +2°C° 0 mm 5 mps 757 mmHg 67%
10:00 +3°C° 0 mm 5 mps 757 mmHg 64%
11:00 +3°C° 0.1 mm 5 mps 756 mmHg 63%
12:00 +5°C° 0.1 mm 5 mps 756 mmHg 61%
13:00 +5°C° 0.1 mm 5 mps 756 mmHg 60%
14:00 +5°C° 0.1 mm 5 mps 756 mmHg 57%
15:00 +6°C° 0.1 mm 5 mps 755 mmHg 55%
16:00 +6°C° 0.1 mm 4 mps 755 mmHg 52%
17:00 +5°C° 0.1 mm 4 mps 755 mmHg 58%
18:00 +5°C° 0.1 mm 4 mps 756 mmHg 65%
19:00 +4°C° 0.1 mm 4 mps 756 mmHg 71%
20:00 +3°C° 0.1 mm 4 mps 756 mmHg 77%
21:00 +3°C° 0.1 mm 4 mps 756 mmHg 83%
22:00 +1°C° 0.1 mm 4 mps 756 mmHg 90%
23:00 +1°C° 0 mm 4 mps 756 mmHg 87%

Day after tomorrow, 15 April, Thursday

Time Temperature Precipitation Wind Pressure Humidity
00:00 +1°C° 0 mm 4 mps 756 mmHg 85%
01:00 +1°C° 0 mm 4 mps 756 mmHg 83%
02:00 0°C° 0 mm 4 mps 756 mmHg 83%
03:00 0°C° 0 mm 4 mps 756 mmHg 84%
04:00 0°C° 0 mm 4 mps 756 mmHg 85%
05:00 0°C° 0.2 mm 4 mps 756 mmHg 87%
06:00 0°C° 0.2 mm 5 mps 756 mmHg 90%
07:00 0°C° 0.2 mm 5 mps 756 mmHg 93%
08:00 -1°C° 0.4 mm 6 mps 756 mmHg 93%
09:00 -1°C° 0.4 mm 6 mps 756 mmHg 94%
10:00 -1°C° 0.4 mm 6 mps 756 mmHg 95%
11:00 -1°C° 0.6 mm 6 mps 755 mmHg 95%
12:00 -1°C° 0.6 mm 6 mps 755 mmHg 95%
13:00 +1°C° 0.6 mm 6 mps 755 mmHg 96%
14:00 +1°C° 0.7 mm 6 mps 755 mmHg 96%
15:00 -1°C° 0.7 mm 6 mps 755 mmHg 97%
16:00 -1°C° 0.7 mm 6 mps 754 mmHg 97%
17:00 -1°C° 0.9 mm 6 mps 754 mmHg 97%
18:00 0°C° 0.9 mm 5 mps 754 mmHg 97%
19:00 0°C° 0.9 mm 5 mps 754 mmHg 98%
20:00 0°C° 0.6 mm 4 mps 754 mmHg 98%
21:00 0°C° 0.6 mm 4 mps 754 mmHg 98%
22:00 +1°C° 0.6 mm 3 mps 754 mmHg 98%
23:00 +1°C° 0.4 mm 3 mps 754 mmHg 98%

16 April, Friday

Time Temperature Precipitation Wind Pressure Humidity
00:00 +1°C° 0.4 mm 3 mps 753 mmHg 98%
01:00 +3°C° 0.4 mm 2 mps 753 mmHg 99%
02:00 +2°C° 0.3 mm 3 mps 753 mmHg 99%
03:00 +2°C° 0.3 mm 3 mps 753 mmHg 99%
04:00 +2°C° 0.3 mm 3 mps 753 mmHg 99%
05:00 +2°C° 0.2 mm 3 mps 753 mmHg 98%
06:00 +2°C° 0.2 mm 3 mps 753 mmHg 98%
07:00 +2°C° 0.2 mm 3 mps 754 mmHg 98%
08:00 +2°C° 0.1 mm 3 mps 754 mmHg 98%
09:00 +2°C° 0.1 mm 3 mps 754 mmHg 98%
10:00 +2°C° 0.1 mm 3 mps 754 mmHg 98%
11:00 +2°C° 0 mm 3 mps 754 mmHg 97%
12:00 +3°C° 0 mm 3 mps 754 mmHg 97%
13:00 +3°C° 0 mm 3 mps 754 mmHg 97%
14:00 +3°C° 0 mm 3 mps 754 mmHg 97%
15:00 +3°C° 0 mm 3 mps 755 mmHg 97%
16:00 +2°C° 0 mm 3 mps 755 mmHg 97%
17:00 +2°C° 0 mm 3 mps 755 mmHg 98%
18:00 +2°C° 0 mm 3 mps 755 mmHg 98%
19:00 +2°C° 0 mm 3 mps 755 mmHg 98%
20:00 +3°C° 0.1 mm 2 mps 755 mmHg 98%
21:00 +3°C° 0.1 mm 2 mps 755 mmHg 98%
22:00 +3°C° 0.1 mm 2 mps 755 mmHg 98%
23:00 +2°C° 0.1 mm 3 mps 755 mmHg 98%

17 April, Saturday

Time Temperature Precipitation Wind Pressure Humidity
00:00 +2°C° 0.1 mm 3 mps 755 mmHg 98%
01:00 +2°C° 0.1 mm 3 mps 755 mmHg 98%
02:00 +2°C° 0.2 mm 3 mps 755 mmHg 98%
03:00 +3°C° 0.2 mm 3 mps 755 mmHg 98%
04:00 +3°C° 0.2 mm 3 mps 754 mmHg 98%
05:00 +3°C° 0.3 mm 3 mps 754 mmHg 98%
06:00 +4°C° 0.3 mm 2 mps 754 mmHg 98%
07:00 +5°C° 0.3 mm 2 mps 755 mmHg 99%
08:00 +6°C° 0.1 mm 2 mps 755 mmHg 98%
09:00 +7°C° 0.1 mm 3 mps 755 mmHg 97%
10:00 +8°C° 0.1 mm 3 mps 755 mmHg 96%
11:00 +9°C° 0.1 mm 3 mps 755 mmHg 90%
12:00 +10°C° 0.1 mm 4 mps 755 mmHg 84%
13:00 +11°C° 0.1 mm 4 mps 755 mmHg 78%
14:00 +12°C° 0.2 mm 4 mps 755 mmHg 74%
15:00 +12°C° 0.2 mm 4 mps 755 mmHg 71%
16:00 +12°C° 0.2 mm 4 mps 755 mmHg 67%
17:00 +11°C° 0.1 mm 3 mps 755 mmHg 74%
18:00 +9°C° 0.1 mm 3 mps 755 mmHg 80%
19:00 +8°C° 0.1 mm 2 mps 755 mmHg 86%
20:00 +7°C° 0 mm 2 mps 756 mmHg 88%
21:00 +7°C° 0 mm 2 mps 756 mmHg 91%
22:00 +6°C° 0 mm 2 mps 756 mmHg 93%
23:00 +7°C° 0 mm 1 mps 756 mmHg 93%

18 April, Sunday

Time Temperature Precipitation Wind Pressure Humidity
00:00 +7°C° 0 mm 1 mps 756 mmHg 94%
01:00 +7°C° 0 mm 1 mps 756 mmHg 94%
02:00 +7°C° 0.2 mm 1 mps 756 mmHg 94%
03:00 +6°C° 0.2 mm 2 mps 756 mmHg 95%
04:00 +6°C° 0.2 mm 2 mps 755 mmHg 95%
05:00 +7°C° 0.1 mm 2 mps 756 mmHg 93%
06:00 +7°C° 0.1 mm 3 mps 756 mmHg 91%
07:00 +8°C° 0.1 mm 3 mps 756 mmHg 89%
08:00 +8°C° 0.1 mm 3 mps 756 mmHg 85%
09:00 +9°C° 0.1 mm 3 mps 756 mmHg 81%
10:00 +9°C° 0.1 mm 3 mps 756 mmHg 77%
11:00 +10°C° 0 mm 3 mps 756 mmHg 76%
12:00 +10°C° 0 mm 3 mps 756 mmHg 75%
13:00 +10°C° 0 mm 3 mps 756 mmHg 74%
14:00 +10°C° 0.1 mm 4 mps 756 mmHg 74%
15:00 +10°C° 0.1 mm 4 mps 756 mmHg 75%
16:00 +10°C° 0.1 mm 4 mps 755 mmHg 76%
17:00 +10°C° 0.1 mm 3 mps 756 mmHg 80%
18:00 +9°C° 0.1 mm 3 mps 756 mmHg 85%
19:00 +8°C° 0.1 mm 3 mps 756 mmHg 89%
20:00 +8°C° 0 mm 3 mps 756 mmHg 89%
21:00 +8°C° 0 mm 2 mps 756 mmHg 89%
22:00 +7°C° 0 mm 2 mps 756 mmHg 89%
23:00 +7°C° 0 mm 2 mps 756 mmHg 88%
Show more

We Need Your Consent

Meteoprog and our Service Providers may store and access personal data such as cookies, device identifiers or other similar technologies on your device and process such data to personalise content and ads, as well as provide social media features and to analyse the traffic.

  • Store and/or access information on your device

    Cookies, device identifiers or other information can be stored or accessed on your device for the purposes indicated above.

  • Personalised ads and content, ad and content measurement, audience insights, and products development

    Ads and content can be personalised based on a profile. More data can be added to better personalise ads and content. Ad and content performance can be measured. Insights about the audience who saw the ads and content can be derived. Such data can be used to develop or improve user’s experience, systems and software.

By clicking ‘I Agree’ you will allow the use of indicated cookies, device identifiers, web beacons or other similar technologies. Your settings can be changed in the browser on your device.

For certain purposes, legitimate interests may be relied on, rather than consent. You can read more about this in our Privacy and Cookie Policy.